Location: Ciserano
(45.5833°N, 9.6000°E)
Time: 13:04:03
(UTC+00:00)

CZ-4C R/B - Pass Details

Date: 29 November 2020
Orbit: 620 x 1382 km, 63.4° (Epoch: 25 January)

Event Time Altitude Azimuth Distance (km) Brightness Sun altitude
Exits shadow 05:11:07 11° 238° (WSW) 2,122 3.9 -15.0°
Maximum altitude 05:15:49 55° 315° (NW) 967 2.2 -14.2°
Drops below altitude 10° 05:21:45 10° 33° (NNE) 2,646 5.0 -13.2°
Sets 05:24:39 0° 38° (NE) 3,725 5.8 -12.8°
